Lanai City, HI

5:41 PM HST on November 17, 2017 (GMT -1000)
Lanai City

Weather History for PHNY - May, 2014

Change the Weather History Date:

Wednesday, May 28, 2014

  Actual Average Record
Temperature  
Mean Temperature 74 °F -  
Max Temperature 81 °F 81 °F 84 °F (1989)
Min Temperature 66 °F 63 °F 59 °F (1951)
Cooling Degree Days 8    
Growing Degree Days 24 (Base 50)    
Moisture  
Dew Point 66 °F    
Average Humidity 77    
Maximum Humidity 93    
Minimum Humidity 61    
Precipitation  
Precipitation 0.00 in - - ()
Sea Level Pressure  
Sea Level Pressure 30.04 in    
Wind  
Wind Speed 10 mph (NE)    
Max Wind Speed 21 mph    
Max Gust Speed 30 mph    
Visibility 10 miles    
Events      
Averages and records for this station are not official NWS values.
T = Trace of Precipitation, MM = Missing Value Source: NWS Daily Summary

Daily Weather History Graph

Daily Weather History Graph

Search for Another Location

Airport or City:

Trip Planner

Search our weather history database for the weather conditions in past years. The results will help you decide how hot, cold, wet, or windy it might be!

Date:

Astronomy

May. 28, 2014 Rise Set
Actual Time 5:46 AM HST 7:03 PM HST
Civil Twilight 5:22 AM HST 7:27 PM HST
Nautical Twilight 4:53 AM HST 7:56 PM HST
Astronomical Twilight 4:23 AM HST 8:26 PM HST
Moon 5:53 AM HST (5/28) 7:18 PM HST (5/28)
Length of Visible Light 14h 05m
Length of Day
13h 16m
New Moon, 0% of the Moon is Illuminated
May 28
New Moon
Jun 5
First Quarter
Jun 12
Full
Jun 19
Last Quarter
Jun 26
New

Hourly Weather History & Observations

Time (HST) Temp. Heat Index Dew Point Humidity Pressure Visibility Wind Dir Wind Speed Gust Speed Precip Events Conditions
12:56 AM 68.9 °F - 65.8 °F 90% 30.04 in 10.0 mi NE 6.9 mph - N/A   Clear
1:56 AM 68.9 °F - 66.9 °F 93% 30.03 in 10.0 mi NE 4.6 mph - N/A   Clear
2:56 AM 68.0 °F - 64.9 °F 90% 30.02 in 10.0 mi NE 6.9 mph - N/A   Clear
3:56 AM 66.9 °F - 64.9 °F 93% 30.01 in 10.0 mi ENE 3.5 mph - N/A   Clear
4:56 AM 66.9 °F - 64.9 °F 93% 30.01 in 10.0 mi Calm Calm - N/A   Clear
5:56 AM 66.9 °F - 64.9 °F 93% 30.03 in 10.0 mi ENE 4.6 mph - N/A   Clear
6:56 AM 70.9 °F - 66.9 °F 87% 30.05 in 10.0 mi ENE 3.5 mph - N/A   Partly Cloudy
7:56 AM 75.9 °F - 65.8 °F 71% 30.06 in 10.0 mi NNE 5.8 mph - N/A   Clear
8:56 AM 77.0 °F - 65.8 °F 68% 30.06 in 10.0 mi ENE 16.1 mph 21.9 mph N/A   Clear
9:56 AM 75.9 °F - 64.9 °F 69% 30.06 in 10.0 mi ENE 17.3 mph - N/A   Mostly Cloudy
10:15 AM 78.8 °F - 66.2 °F 65% 30.11 in 10.0 mi NE 15.0 mph - N/A   Mostly Cloudy
10:56 AM 80.6 °F 82.7 °F 66.2 °F 61% 30.12 in 10.0 mi NE 18.4 mph 21.9 mph N/A   Partly Cloudy
11:56 AM 77.0 °F - 64.9 °F 66% 30.05 in 10.0 mi ENE 6.9 mph - N/A   Overcast
12:03 PM 78.8 °F - 64.4 °F 61% 30.11 in 10.0 mi ESE 6.9 mph - N/A   Overcast
12:56 PM 79.0 °F - 64.9 °F 62% 30.03 in 10.0 mi NE 17.3 mph - N/A   Overcast
1:56 PM 81.0 °F 83.3 °F 66.9 °F 62% 30.01 in 10.0 mi NNE 18.4 mph - N/A   Mostly Cloudy
2:56 PM 79.9 °F - 65.8 °F 62% 30.00 in 10.0 mi NE 20.7 mph - N/A   Mostly Cloudy
3:56 PM 77.9 °F - 68.0 °F 71% 30.00 in 10.0 mi ENE 18.4 mph - N/A   Mostly Cloudy
4:56 PM 78.8 °F - 66.2 °F 65% 30.05 in 10.0 mi NE 20.7 mph - N/A   Clear
5:56 PM 74.8 °F - 65.8 °F 73% 30.00 in 10.0 mi NE 20.7 mph 27.6 mph N/A   Clear
6:56 PM 72.0 °F - 65.8 °F 81% 30.01 in 10.0 mi NE 17.3 mph 29.9 mph N/A   Clear
7:56 PM 70.9 °F - 66.9 °F 87% 30.02 in 10.0 mi NE 18.4 mph 21.9 mph N/A   Clear
8:56 PM 70.0 °F - 66.9 °F 90% 30.03 in 10.0 mi NE 19.6 mph - N/A   Clear
9:56 PM 70.0 °F - 65.8 °F 87% 30.04 in 10.0 mi NE 18.4 mph - N/A   Clear
10:56 PM 68.9 °F - 63.9 °F 84% 30.04 in 10.0 mi ENE 16.1 mph - N/A   Clear
11:56 PM 68.9 °F - 63.0 °F 81% 30.03 in 10.0 mi East 12.7 mph - N/A   Clear